Location: Chervonnoye
(48.6000°N, 34.4000°E)
Time: 06:49:37
(UTC+00:00)

KAITUO 1B - Pass Details

Date: 30 November 2021
Orbit: 486 x 507 km, 97.4° (Epoch: 18 January)

Event Time Altitude Azimuth Distance (km) Brightness Sun altitude
Rises 15:13:08 0° 165° (SSE) 2,590 ? -13.3°
Reaches altitude 10° 15:15:12 10° 165° (SSE) 1,714 ? -13.6°
Maximum altitude 15:18:54 88° 80° (E) 515 ? -14.2°
Drops below altitude 10° 15:22:39 10° 348° (NNW) 1,741 ? -14.8°
Sets 15:24:46 0° 348° (NNW) 2,634 ? -15.1°
